Grand Rapids, MN

2:45 PM CST on February 11, 2016 (GMT -0600)
Grand Rapids-Itasca County-Newstrom Field

Weather History for KGPZ - December, 2012

Change the Weather History Date:

Sunday, December 16, 2012

  Actual Average Record
Temperature  
Mean Temperature 24 °F -  
Max Temperature 32 °F 23 °F 51 °F (1939)
Min Temperature 15 °F 4 °F -29 °F (2008)
Degree Days  
Heating Degree Days 42    
Moisture  
Dew Point 18 °F    
Average Humidity 90    
Maximum Humidity 100    
Minimum Humidity 86    
Precipitation  
Precipitation 0.04 in - - ()
Sea Level Pressure  
Sea Level Pressure 29.68 in    
Wind  
Wind Speed 13 mph (NW)    
Max Wind Speed 18 mph    
Max Gust Speed 23 mph    
Visibility 7 miles    
Events      
Averages and records for this station are not official NWS values.
T = Trace of Precipitation, MM = Missing Value Source: NWS Daily Summary

Daily Weather History Graph

Daily Weather History Graph

Search for Another Location

Airport or City:

Trip Planner

Search our weather history database for the weather conditions in past years. The results will help you decide how hot, cold, wet, or windy it might be!

Date:

Astronomy

Dec. 16, 2012 Rise Set
Actual Time 7:55 AM CST 4:24 PM CST
Civil Twilight 7:19 AM CST 5:00 PM CST
Nautical Twilight 6:40 AM CST 5:39 PM CST
Astronomical Twilight 6:03 AM CST 6:16 PM CST
Moon 10:16 AM CST (12/16) 8:53 PM CST (12/16)
Length of Visible Light 9h 41m
Length of Day
8h 29m
Waxing Crescent, 16% of the Moon is Illuminated
Dec 16
Waxing Crescent
Dec 19
First Quarter
Dec 28
Full
Jan 4
Last Quarter
Jan 11
New

Hourly Weather History & Observations

Time (CST) Temp. Windchill Dew Point Humidity Pressure Visibility Wind Dir Wind Speed Gust Speed Precip Events Conditions
12:15 AM 32.0 °F 23.0 °F 30.2 °F 93% 29.55 in 6.0 mi NW 11.5 mph - N/A   Overcast
12:35 AM 32.0 °F 23.0 °F 30.2 °F 93% 29.55 in 9.0 mi NW 11.5 mph - N/A   Overcast
12:55 AM 32.0 °F 22.5 °F 30.2 °F 93% 29.56 in 8.0 mi NW 12.7 mph - N/A   Overcast
1:15 AM 32.0 °F 21.6 °F 30.2 °F 93% 29.56 in 9.0 mi NW 15.0 mph - N/A   Overcast
1:35 AM 32.0 °F 22.1 °F 30.2 °F 93% 29.56 in 10.0 mi NW 13.8 mph - N/A   Overcast
1:55 AM 32.0 °F 22.5 °F 30.2 °F 93% 29.57 in 10.0 mi NW 12.7 mph - N/A   Overcast
2:15 AM 32.0 °F 22.5 °F 30.2 °F 93% 29.57 in 10.0 mi NW 12.7 mph - N/A   Overcast
2:35 AM 30.2 °F 19.8 °F 30.2 °F 100% 29.58 in 3.0 mi NW 13.8 mph - N/A   Overcast
2:55 AM 30.2 °F 19.3 °F 30.2 °F 100% 29.59 in 4.0 mi NW 15.0 mph - N/A   Overcast
3:15 AM 30.2 °F 19.8 °F 28.4 °F 93% 29.59 in 2.0 mi NW 13.8 mph 18.4 mph N/A   Overcast
3:35 AM 28.4 °F 19.1 °F 26.6 °F 93% 29.60 in 1.2 mi WNW 10.4 mph - N/A   Overcast
3:55 AM 26.6 °F 16.2 °F 24.8 °F 93% 29.60 in 1.2 mi WNW 11.5 mph - N/A   Overcast
4:15 AM 24.8 °F 14.0 °F 24.8 °F 100% 29.60 in 1.8 mi WNW 11.5 mph 16.1 mph N/A   Overcast
4:35 AM 24.8 °F 13.4 °F 21.2 °F 86% 29.61 in 2.0 mi WNW 12.7 mph 16.1 mph N/A   Overcast
4:55 AM 23.0 °F 10.6 °F 19.4 °F 86% 29.62 in 2.0 mi WNW 13.8 mph - N/A   Overcast
5:15 AM 21.2 °F 8.3 °F 19.4 °F 93% 29.62 in 2.5 mi WNW 13.8 mph - N/A   Overcast
5:35 AM 21.2 °F 6.4 °F 17.6 °F 86% 29.63 in 2.5 mi NW 18.4 mph 23.0 mph N/A   Overcast
5:55 AM 21.2 °F 6.4 °F 17.6 °F 86% 29.64 in 3.0 mi NW 18.4 mph - N/A   Overcast
6:15 AM 19.4 °F 4.5 °F 17.6 °F 93% 29.65 in 4.0 mi NW 17.3 mph 21.9 mph N/A   Overcast
6:35 AM 19.4 °F 4.1 °F 15.8 °F 86% 29.65 in 4.0 mi NW 18.4 mph - N/A   Overcast
6:55 AM 17.6 °F 2.2 °F 15.8 °F 93% 29.66 in 4.0 mi NW 17.3 mph - N/A   Overcast
7:15 AM 17.6 °F 5.7 °F 15.8 °F 93% 29.66 in 4.0 mi WNW 10.4 mph - N/A   Overcast
7:35 AM 17.6 °F 3.2 °F 15.8 °F 93% 29.67 in 2.5 mi WNW 15.0 mph 21.9 mph N/A   Overcast
7:55 AM 17.6 °F 4.3 °F 15.8 °F 93% 29.67 in 2.0 mi WNW 12.7 mph 17.3 mph N/A   Overcast
8:15 AM 17.6 °F 4.3 °F 14.0 °F 86% 29.67 in 1.8 mi NW 12.7 mph - N/A   Overcast
8:35 AM 17.6 °F 2.7 °F 14.0 °F 86% 29.68 in 2.0 mi NNW 16.1 mph 19.6 mph N/A   Overcast
8:55 AM 15.8 °F 2.7 °F 12.2 °F 86% 29.69 in 2.5 mi NW 11.5 mph - N/A   Overcast
9:15 AM 15.8 °F 0.9 °F 12.2 °F 86% 29.69 in 2.5 mi NW 15.0 mph - N/A   Overcast
9:35 AM 15.8 °F 0.3 °F 12.2 °F 86% 29.69 in 2.5 mi NNW 16.1 mph - N/A   Overcast
9:55 AM 15.8 °F 3.4 °F 12.2 °F 86% 29.71 in 3.0 mi NW 10.4 mph - N/A   Overcast
10:15 AM 15.8 °F 0.3 °F 12.2 °F 86% 29.71 in 3.0 mi NW 16.1 mph - N/A   Overcast
10:35 AM 15.8 °F 1.4 °F 12.2 °F 86% 29.72 in 3.0 mi NW 13.8 mph 19.6 mph N/A   Overcast
10:55 AM 15.8 °F 1.4 °F 12.2 °F 86% 29.71 in 3.0 mi NNW 13.8 mph - N/A   Overcast
11:15 AM 15.8 °F 0.9 °F 14.0 °F 93% 29.71 in 4.0 mi NNW 15.0 mph - N/A   Overcast
11:35 AM 15.8 °F 0.3 °F 14.0 °F 93% 29.70 in 4.0 mi NW 16.1 mph 23.0 mph N/A   Overcast
11:55 AM 15.8 °F 0.3 °F 14.0 °F 93% 29.71 in 5.0 mi NW 16.1 mph - N/A   Overcast
12:15 PM 17.6 °F 3.7 °F 14.0 °F 86% 29.70 in 7.0 mi NW 13.8 mph - N/A   Overcast
12:35 PM 17.6 °F 3.2 °F 14.0 °F 86% 29.71 in 6.0 mi NNW 15.0 mph - N/A   Overcast
12:55 PM 17.6 °F 3.2 °F 14.0 °F 86% 29.71 in 7.0 mi NW 15.0 mph - N/A   Overcast
1:15 PM 17.6 °F 3.7 °F 14.0 °F 86% 29.70 in 8.0 mi NW 13.8 mph - N/A   Overcast
1:35 PM 17.6 °F 4.3 °F 15.8 °F 93% 29.70 in 10.0 mi NW 12.7 mph - N/A   Overcast
1:55 PM 17.6 °F 3.2 °F 15.8 °F 93% 29.70 in 10.0 mi NW 15.0 mph - N/A   Overcast
2:15 PM 17.6 °F 3.2 °F 15.8 °F 93% 29.69 in 10.0 mi NW 15.0 mph - N/A   Overcast
2:35 PM 17.6 °F 2.7 °F 15.8 °F 93% 29.69 in 10.0 mi NW 16.1 mph 20.7 mph N/A   Overcast
2:55 PM 17.6 °F 4.3 °F 15.8 °F 93% 29.70 in 10.0 mi NW 12.7 mph - N/A   Overcast
3:15 PM 17.6 °F 5.0 °F 15.8 °F 93% 29.70 in 10.0 mi NW 11.5 mph - N/A   Overcast
3:35 PM 17.6 °F 5.0 °F 15.8 °F 93% 29.71 in 10.0 mi NW 11.5 mph - N/A   Overcast
3:55 PM 17.6 °F 2.7 °F 15.8 °F 93% 29.71 in 10.0 mi NNW 16.1 mph - N/A   Overcast
4:15 PM 17.6 °F 4.3 °F 15.8 °F 93% 29.71 in 10.0 mi NW 12.7 mph - N/A   Overcast
4:35 PM 17.6 °F 3.2 °F 15.8 °F 93% 29.72 in 10.0 mi NW 15.0 mph - N/A   Overcast
4:55 PM 17.6 °F 5.0 °F 15.8 °F 93% 29.73 in 10.0 mi NW 11.5 mph - N/A   Overcast
5:15 PM 17.6 °F 5.0 °F 15.8 °F 93% 29.73 in 10.0 mi NW 11.5 mph - N/A   Overcast
5:35 PM 17.6 °F 3.7 °F 15.8 °F 93% 29.74 in 10.0 mi NNW 13.8 mph - N/A   Overcast
5:55 PM 17.6 °F 6.4 °F 15.8 °F 93% 29.75 in 10.0 mi North 9.2 mph - N/A   Overcast
6:15 PM 17.6 °F 6.4 °F 15.8 °F 93% 29.75 in 10.0 mi NNW 9.2 mph - N/A   Overcast
6:35 PM 17.6 °F 5.7 °F 15.8 °F 93% 29.75 in 10.0 mi NNW 10.4 mph - N/A   Overcast
6:55 PM 19.4 °F 7.9 °F 15.8 °F 86% 29.75 in 10.0 mi NNW 10.4 mph - N/A   Overcast
7:15 PM 19.4 °F 4.1 °F 17.6 °F 93% 29.75 in 10.0 mi NNW 18.4 mph - N/A   Overcast
7:35 PM 19.4 °F 4.5 °F 15.8 °F 86% 29.75 in 10.0 mi NNW 17.3 mph - N/A   Overcast
7:55 PM 19.4 °F 6.0 °F 15.8 °F 86% 29.76 in 10.0 mi NNW 13.8 mph - N/A   Overcast
8:15 PM 19.4 °F 7.2 °F 15.8 °F 86% 29.75 in 10.0 mi NW 11.5 mph - N/A   Overcast
8:35 PM 19.4 °F 7.9 °F 17.6 °F 93% 29.76 in 10.0 mi NNW 10.4 mph - N/A   Overcast
8:55 PM 19.4 °F 7.9 °F 17.6 °F 93% 29.76 in 10.0 mi NW 10.4 mph - N/A   Overcast
9:15 PM 19.4 °F 5.0 °F 15.8 °F 86% 29.75 in 10.0 mi NW 16.1 mph - N/A   Overcast
9:35 PM 19.4 °F 6.6 °F 15.8 °F 86% 29.75 in 10.0 mi North 12.7 mph - N/A   Overcast
9:55 PM 19.4 °F 7.2 °F 15.8 °F 86% 29.75 in 10.0 mi NNW 11.5 mph - N/A   Overcast
10:15 PM 19.4 °F 8.6 °F 15.8 °F 86% 29.75 in 10.0 mi NW 9.2 mph - N/A   Overcast
10:35 PM 19.4 °F 5.5 °F 15.8 °F 86% 29.74 in 10.0 mi NNW 15.0 mph - N/A   Overcast
10:55 PM 19.4 °F 7.2 °F 15.8 °F 86% 29.75 in 10.0 mi NNW 11.5 mph - N/A   Overcast
11:15 PM 19.4 °F 7.2 °F 15.8 °F 86% 29.75 in 10.0 mi North 11.5 mph - N/A   Overcast
11:35 PM 19.4 °F 7.2 °F 15.8 °F 86% 29.75 in 10.0 mi NNW 11.5 mph - N/A   Overcast
11:55 PM 19.4 °F 7.2 °F 15.8 °F 86% 29.75 in 10.0 mi NNW 11.5 mph - N/A   Overcast